[[{"header":{"parameterUnit":"m.s-1","parameterCategory":1,"la1":30.2991,"la2":30.254,"lo1":-89.0895,"lo2":-89.0444,"dy":0.0017,"dx":0.0017,"nx":28,"ny":28,"refTime":"2024-05-25T03:00:00:Z","depth":0,"parameterNumber":2,"parameterNumberName":"U-component_of_WINDS"},"data":[0,0,0,0,0,0,0,0,0,0,0,0,0,0,0,0,0,0,0,0,0,0,0,0,0,0,0,0,0,0,0,0,0,0,0,0,0,0,0,0,0,0,0,0,0,0,0,0,0,0,0,0,0,0,0,0,0,0,0.3503,0.3504,0,0.3547,0.3547,0.3548,0.3558,0.3557,0.3557,0.3557,0.3603,0.3604,0.3606,0,0,0,0,0,0,0,0,0,0,0,0,0,0.343,0.3432,0.3503,0.3504,0.3504,0.3547,0.3547,0.3548,0.3558,0.3557,0.3557,0.3557,0.3602,0.3604,0.3606,0,0,0,0,0,0,0,0,0,0,0,0,0,0.3467,0.3432,0.3503,0.3514,0.3516,0.3547,0.3547,0.3548,0.3558,0.3557,0.3557,0.3557,0.3602,0.3604,0.3606,0.3629,0,0,0.3613,0.3614,0,0,0,0,0,0,0,0,0.3465,0.3469,0.3512,0.3514,0.3515,0.3546,0.3538,0.3575,0.3558,0.3542,0.3557,0.3556,0.3584,0.3588,0.3597,0.3631,0.3633,0.3613,0.3615,0.3616,0.3616,0,0,0,0,0,0,0,0.3462,0.3468,0.3521,0.3513,0.3515,0.3518,0.3522,0.3545,0.3565,0.3543,0.3544,0.3549,0.3585,0.3595,0.3598,0.3634,0.3613,0.3615,0.3617,0.3617,0.369,0.3691,0,0,0,0,0,0,0.3457,0.3465,0.3519,0.3522,0.3488,0.3519,0.3525,0.3537,0.3565,0.3569,0.3549,0.3549,0.3591,0.3596,0.36,0.363,0.3616,0.3618,0.3619,0.3689,0.369,0.3691,0,0,0,0,0,0,0.3456,0.3462,0.3517,0.3494,0.3501,0.3521,0.3535,0.3538,0.3548,0.357,0.3573,0.3556,0.3591,0.3597,0.3622,0.3631,0.3619,0.3621,0.3689,0.369,0.369,0.3688,0,0,0,0,0,0,0.3454,0.3462,0.347,0.3494,0.3502,0.3538,0.3535,0.3539,0.3552,0.3552,0.3577,0.358,0.3591,0.3619,0.3624,0.3634,0.3623,0.3688,0.3689,0.369,0.3688,0.3689,0.369,0,0,0,0,0,0.3451,0.3468,0.347,0.3477,0.3513,0.3539,0.3543,0.3555,0.3552,0.3561,0.3575,0.3579,0.3629,0.3621,0.3627,0.3638,0.3688,0.3689,0.369,0.3687,0.3689,0.369,0,0,0,0,0,0,0.3445,0.3471,0.3474,0.3499,0.3517,0.354,0.3552,0.3557,0.3575,0.3575,0.359,0.3595,0.3619,0.3631,0.3622,0.3662,0.3658,0.3661,0.3654,0.3655,0.3657,0.3653,0.3624,0,0,0,0,0,0.3446,0.3464,0.3486,0.3506,0.3515,0.3532,0.3543,0.3551,0.357,0.3577,0.3593,0.3611,0.3631,0.3644,0.3663,0.3689,0.3695,0.37,0.3701,0.3702,0.3704,0.3719,0.3722,0.3695,0.3695,0.3695,0,0,0.345,0.3466,0.3477,0.3505,0.352,0.3538,0.3538,0.3557,0.3572,0.358,0.3605,0.3617,0.3639,0.3664,0.3676,0.3675,0.3713,0.3704,0.3704,0.3706,0.3721,0.3723,0.3726,0.3696,0.3696,0.3696,0,0,0.3465,0.3479,0.3498,0.3512,0.3534,0.3545,0.3549,0.3572,0.3581,0.3606,0.3613,0.363,0.3664,0.3679,0.3691,0.3713,0.3717,0.3719,0.3725,0.374,0.3742,0.3744,0.3752,0.3755,0.3721,0.3721,0.3721,0,0.3467,0.3495,0.3507,0.3526,0.3539,0.3547,0.3566,0.358,0.3607,0.3615,0.3613,0.3656,0.3671,0.3701,0.3706,0.3715,0.3721,0.3716,0.374,0.3743,0.3745,0.3753,0.3756,0.3721,0.3721,0.3721,0.3721,0,0.3496,0.3515,0.3527,0.3553,0.3567,0.3586,0.3602,0.3615,0.3621,0.3633,0.3658,0.3677,0.37,0.3708,0.3714,0.3739,0.3737,0.3737,0.3734,0.3747,0.3755,0.3758,0.3721,0.3721,0.3721,0.3721,0,0,0.3509,0.3541,0.3545,0.3557,0.3582,0.3597,0.3617,0.364,0.3651,0.3669,0.3686,0.3715,0.3715,0.3729,0.3738,0.375,0.3767,0.375,0.375,0.3753,0.3795,0.3795,0.3798,0.377,0.3771,0.3771,0.3794,0,0.3528,0.3563,0.3575,0.3604,0.3622,0.3631,0.3648,0.3665,0.3677,0.3695,0.3707,0.3728,0.3727,0.3735,0.3748,0.3762,0.3776,0.3761,0.3787,0.3788,0.3782,0.3803,0.3802,0.3822,0.3797,0.3797,0.3798,0,0.3554,0.3573,0.3604,0.3627,0.3635,0.3651,0.3673,0.3689,0.3709,0.3717,0.3732,0.374,0.3761,0.3756,0.3786,0.3776,0.3787,0.3796,0.3797,0.38,0.3794,0.3807,0.3829,0.3832,0.3803,0.3802,0.3802,0,0.3561,0.3594,0.3617,0.3627,0.3654,0.3665,0.3677,0.3696,0.3709,0.3729,0.3737,0.3759,0.3771,0.3788,0.3801,0.3796,0.3831,0.3826,0.3838,0.3838,0.3845,0.3845,0.387,0.3852,0.3852,0.3852,0.3852,0,0.3581,0.36,0.3621,0.3635,0.3657,0.367,0.3691,0.3704,0.3721,0.3738,0.3747,0.3763,0.378,0.3798,0.3809,0.3832,0.3838,0.3845,0.3847,0.3844,0.3843,0.3852,0.3851,0.3852,0.3852,0.3852,0.3852,0,0.3592,0.3607,0.3633,0.3656,0.3663,0.3678,0.3698,0.3713,0.3725,0.3746,0.3752,0.3771,0.3793,0.3808,0.3837,0.3844,0.387,0.3872,0.3863,0.3864,0.3875,0.3874,0.3908,0.3913,0.3891,0.3891,0.3891,0,0.3604,0.3619,0.3644,0.3657,0.3668,0.3688,0.3701,0.3715,0.3729,0.3753,0.3765,0.3787,0.3806,0.3841,0.3858,0.388,0.3883,0.3893,0.3886,0.3882,0.3883,0.3882,0.3884,0.3894,0.3894,0.3894,0.3895,0,0.3624,0.3631,0.365,0.3671,0.3687,0.3705,0.3723,0.3732,0.3749,0.3764,0.3787,0.3802,0.3831,0.3853,0.3877,0.3889,0.3895,0.3897,0.3901,0.3898,0.3892,0.3895,0.3866,0.3896,0.3896,0.3896,0.3896,0.3895,0.3636,0.365,0.367,0.3691,0.3706,0.3723,0.3738,0.3752,0.3771,0.3795,0.3803,0.3826,0.3846,0.3879,0.3892,0.3911,0.391,0.3915,0.3917,0.3918,0.3918,0.3888,0.3915,0.3915,0.3915,0.3915,0.3915,0,0.3657,0.3671,0.369,0.3715,0.3731,0.3735,0.3755,0.3769,0.3789,0.3808,0.3826,0.3852,0.3874,0.3893,0.3916,0.3927,0.3931,0.3933,0.3932,0.3935,0.3918,0.3912,0.393,0.393,0.393,0.393,0.393,0.393,0.367,0.3693,0.3703,0.3734,0.3748,0.3771,0.3782,0.3798,0.3812,0.3841,0.386,0.3871,0.389,0.3914,0.3935,0.394,0.3948,0.395,0.3955,0.3938,0.3936,0.3935,0.393,0.3951,0.3951,0.3971,0.3972,0.3972]},{"header":{"parameterUnit":"m.s-1","parameterCategory":1,"la1":30.2991,"la2":30.254,"lo1":-89.0895,"lo2":-89.0444,"dy":0.0017,"dx":0.0017,"nx":28,"ny":28,"refTime":"2024-05-25T03:00:00:Z","depth":0,"parameterNumber":3,"parameterNumberName":"V-component_of_WINDS"},"data":[0,0,0,0,0,0,0,0,0,0,0,0,0,0,0,0,0,0,0,0,0,0,0,0,0,0,0,0,0,0,0,0,0,0,0,0,0,0,0,0,0,0,0,0,0,0,0,0,0,0,0,0,0,0,0,0,0,0,4.0906,4.0906,0,4.0839,4.0838,4.0837,4.0792,4.0792,4.0791,4.0791,4.0717,4.0715,4.0713,0,0,0,0,0,0,0,0,0,0,0,0,0,4.0993,4.0991,4.0906,4.0905,4.0905,4.0839,4.0838,4.0837,4.0792,4.0792,4.0791,4.0791,4.0717,4.0715,4.0713,0,0,0,0,0,0,0,0,0,0,0,0,0,4.0943,4.0991,4.0906,4.0874,4.0871,4.0839,4.0838,4.0837,4.0792,4.0792,4.0791,4.0791,4.0718,4.0715,4.0713,4.0706,0,0,4.0705,4.0704,0,0,0,0,0,0,0,0,4.0946,4.094,4.088,4.0876,4.0872,4.0823,4.0841,4.0793,4.0792,4.0822,4.0791,4.079,4.0752,4.0747,4.0735,4.0703,4.07,4.0705,4.0703,4.0702,4.0702,0,0,0,0,0,0,0,4.095,4.0943,4.0879,4.0879,4.0875,4.0862,4.0855,4.0832,4.079,4.0819,4.0816,4.0809,4.075,4.0738,4.0733,4.0698,4.0705,4.0703,4.0701,4.07,4.066,4.066,0,0,0,0,0,0,4.0959,4.0946,4.0882,4.0877,4.0909,4.0861,4.0853,4.0839,4.079,4.0782,4.0809,4.0807,4.0742,4.0736,4.073,4.0721,4.0702,4.07,4.0698,4.0659,4.066,4.066,0,0,0,0,0,0,4.0961,4.0953,4.0884,4.0911,4.0901,4.086,4.0846,4.0838,4.0826,4.0783,4.0775,4.0804,4.0741,4.0734,4.0713,4.0717,4.0699,4.0696,4.0659,4.0659,4.066,4.0701,0,0,0,0,0,0,4.0963,4.0954,4.0952,4.0911,4.09,4.087,4.0846,4.0837,4.0822,4.0819,4.0776,4.0769,4.0741,4.0718,4.0711,4.0714,4.0694,4.0658,4.0659,4.066,4.0699,4.0703,4.0706,0,0,0,0,0,4.0967,4.0965,4.0952,4.0945,4.0896,4.087,4.0864,4.0833,4.0823,4.082,4.0793,4.077,4.0718,4.0716,4.0708,4.071,4.0658,4.0659,4.066,4.0698,4.0702,4.0706,0,0,0,0,0,0,4.1004,4.0958,4.0944,4.0929,4.0904,4.0863,4.0858,4.0838,4.0814,4.0812,4.0773,4.0764,4.0748,4.0727,4.0725,4.0702,4.0685,4.0685,4.0717,4.0721,4.0724,4.073,4.0692,0,0,0,0,0,4.1012,4.0996,4.0956,4.0946,4.0935,4.0899,4.0886,4.0865,4.0837,4.0825,4.0796,4.0769,4.0746,4.0732,4.0709,4.0696,4.0687,4.0694,4.0697,4.07,4.07,4.0694,4.0697,4.0664,4.0664,4.0664,0,0,4.1025,4.0998,4.099,4.0953,4.0931,4.0915,4.089,4.0873,4.086,4.0822,4.0802,4.078,4.0747,4.0731,4.0722,4.0713,4.0708,4.0702,4.0705,4.0703,4.0695,4.0698,4.0701,4.0664,4.0664,4.0664,0,0,4.1042,4.1019,4.101,4.099,4.0958,4.0935,4.0933,4.0894,4.0879,4.0859,4.0831,4.0815,4.0776,4.0755,4.0738,4.075,4.0729,4.0743,4.0762,4.0756,4.0759,4.0761,4.0766,4.0769,4.0743,4.0744,4.0744,0,4.1062,4.1038,4.1007,4.0993,4.0978,4.0946,4.0936,4.0917,4.0879,4.0869,4.0859,4.0813,4.0787,4.0767,4.077,4.0758,4.0754,4.0748,4.0761,4.0763,4.0764,4.0769,4.0771,4.0746,4.0745,4.0745,4.0745,0,4.1065,4.1048,4.1045,4.1012,4.0996,4.0984,4.0952,4.0939,4.092,4.0898,4.0878,4.0848,4.0819,4.0812,4.0792,4.079,4.0785,4.0769,4.0751,4.077,4.0774,4.0776,4.0749,4.0748,4.0747,4.0747,0,0,4.1102,4.1055,4.1054,4.1039,4.1003,4.0989,4.0976,4.095,4.0941,4.0916,4.0905,4.0875,4.0861,4.0842,4.0819,4.0814,4.0827,4.0799,4.0797,4.0806,4.0824,4.0837,4.084,4.0813,4.0814,4.0814,4.0828,0,4.1114,4.1091,4.1064,4.105,4.1035,4.1005,4.0993,4.097,4.0949,4.0933,4.0908,4.0889,4.0871,4.086,4.0853,4.0827,4.0831,4.0826,4.0802,4.0801,4.0812,4.0842,4.0855,4.0869,4.0829,4.0829,4.0829,0,4.1124,4.1104,4.1089,4.1057,4.1049,4.104,4.1015,4.1,4.0973,4.0958,4.094,4.0916,4.0901,4.0886,4.0864,4.0862,4.085,4.0836,4.0836,4.0833,4.0817,4.084,4.0873,4.0876,4.0831,4.0831,4.083,0,4.1154,4.1123,4.1111,4.1099,4.106,4.1055,4.1038,4.1011,4.0998,4.0976,4.0967,4.0943,4.093,4.0911,4.0882,4.0874,4.0864,4.0846,4.0852,4.0853,4.0851,4.0851,4.0883,4.0843,4.0843,4.0843,4.0843,0,4.1171,4.1163,4.1124,4.1116,4.1107,4.1077,4.1068,4.1048,4.1025,4.1013,4.0984,4.0973,4.0935,4.092,4.0896,4.0883,4.0877,4.0864,4.0858,4.0867,4.0869,4.0859,4.0858,4.0843,4.0843,4.0843,4.0843,0,4.1203,4.1176,4.1161,4.1127,4.1119,4.1113,4.1084,4.1075,4.1054,4.1039,4.1033,4.0999,4.098,4.0949,4.0919,4.0904,4.0895,4.0884,4.0905,4.0901,4.0909,4.0909,4.0936,4.0939,4.0896,4.0897,4.0897,0,4.1215,4.1209,4.1175,4.1167,4.1152,4.1137,4.1125,4.1095,4.1083,4.1053,4.1048,4.1027,4.1008,4.0978,4.095,4.0928,4.0917,4.0928,4.0913,4.0924,4.0919,4.092,4.092,4.0932,4.0932,4.0933,4.0933,0,4.124,4.1228,4.1212,4.1193,4.118,4.1162,4.1142,4.1136,4.1102,4.109,4.1071,4.1057,4.1029,4.1008,4.0983,4.0964,4.0944,4.0939,4.0939,4.0948,4.0961,4.0956,4.0915,4.0938,4.0937,4.0937,4.0937,4.0937,4.1263,4.1257,4.1234,4.1218,4.1201,4.1184,4.1176,4.1154,4.1139,4.1115,4.1098,4.108,4.1055,4.1019,4.1002,4.0988,4.0978,4.0978,4.0978,4.0979,4.0983,4.0963,4.0983,4.0983,4.0982,4.0982,4.0982,0,4.1288,4.1272,4.1258,4.1234,4.1221,4.1205,4.1184,4.1174,4.116,4.1139,4.1122,4.1101,4.1082,4.1054,4.1032,4.1026,4.1016,4.1021,4.1022,4.1018,4.0992,4.0995,4.103,4.103,4.103,4.103,4.103,4.103,4.13,4.129,4.1275,4.1257,4.1241,4.1225,4.1215,4.1199,4.1183,4.1162,4.1147,4.1129,4.1105,4.1082,4.1064,4.1056,4.105,4.1059,4.1048,4.1024,4.102,4.1015,4.1018,4.1057,4.1057,4.1075,4.1075,4.1075]}]]